User: anonymous   Login
Location: Unspecified
(0.0000°N, 0.0000°E)
Time: 08:46:33
(UTC+00:00)
Language:

SR - Orbit

View from above orbital plane
View from above orbital plane
View from above satellite
View from above satellite

Ground track
Ground track

The orbit data is extracted from the following two-line orbital elements,

1 00046U 60007B   16269.05492292  .00000150  00000-0  53519-4 0  9993
2 00046  66.6896 124.2060 0204134  65.0037 297.2119 14.48934633941845
Epoch (UTC): 25 September 2016 01:19:05
Eccentricity: 0.0204134
inclination: 66.6896°
perigee height: 584 km
apogee height: 874 km
right ascension of ascending node: 124.2060°
argument of perigee: 65.0037°
revolutions per day: 14.48934633
mean anomaly at epoch: 297.2119°
orbit number at epoch: 94184

The dashed part of the orbit path shows where the satellite is in the earth's shadow,  

DLR